sat.trackr.live / text

‹ back to catalog

MACSAT (FINCH 1)

NORAD 58024 · 2023-155J

PAYLOAD ACTIVE UNKNOWN

§ Identity

Operator
Country
LUXE
Launch date
2023-10-09
Launch site
FRGUI
Launch vehicle
Mass (kg)
RCS (m²)

External: N2YO · Heavens-Above · Gunter

§ Orbital elements

Epoch: 2026-05-25T02:49:36.802848Z

Period
94.72 min
Inclination
97.5777°
Eccentricity
0.0003697
Mean motion
15.20344292 rev/d
Perigee alt
502.3 km
Apogee alt
507.3 km
Semi-major
6,882.9 km
B*
2.0492e-4
RAAN
226.9884°
Arg perigee
128.8063°
Mean anomaly
231.3502°
Rev number
14,482

§ Raw data

MACSAT (FINCH 1)1 58024U 23155J   26145.11778707  .00004388  00000+0  20492-3 0  99932 58024  97.5777 226.9884 0003697 128.8063 231.3502 15.20344292144822

JSON: /api/v1/satellites/58024 · /tle

For live sub-satellite position, see the globe view (requires WebGL).

§ Visibility from observer

Set your observer location to see the next 7 days of passes ≥ 10°. The values pass through the URL so the page stays shareable.

No JS? Fill the form by hand. The geolocation button needs JavaScript.